[[{"header":{"parameterUnit":"m.s-1","parameterCategory":2,"la1":30.2992,"la2":30.254,"lo1":-89.0895,"lo2":-89.0443,"dy":0.0025,"dx":0.0025,"nx":19,"ny":19,"refTime":"2026-03-18T09:00:00:Z","depth":"0","parameterNumber":2,"parameterNumberName":"U-component_of_CURRENTS"},"data":[0,0,0,-0.1976,-0.1974,-0.188,-0.1879,-0.1774,-0.1773,0,0,0,0,0,0,0,0,0,0,0,-0.201,-0.201,-0.1976,-0.1974,-0.188,-0.1879,-0.1774,-0.1773,0,0,0,0,0,0,0,0,0,0,0,-0.201,-0.201,-0.201,-0.1974,-0.188,-0.1879,-0.1774,-0.1837,0,0,0,0,0,0,0,0,0,0,-0.1925,-0.1948,-0.201,-0.201,-0.1973,-0.188,-0.1879,-0.184,-0.1833,-0.1826,0,-0.1824,0,-0.1803,-0.1768,-0.1768,0,0,0,-0.1957,-0.1953,-0.1945,-0.201,-0.1973,-0.188,-0.1918,-0.1836,-0.1829,-0.1818,-0.1822,-0.1818,-0.1801,-0.1768,-0.1767,-0.1799,-0.18,0,0,-0.1962,-0.1972,-0.195,-0.1941,-0.1964,-0.1921,-0.1915,-0.1831,-0.1821,-0.1822,-0.1815,-0.18,-0.1767,-0.1766,-0.1798,-0.18,0,0,0,-0.1989,-0.1976,-0.1968,-0.1945,-0.1931,-0.1918,-0.1912,-0.1824,-0.1827,-0.1814,-0.1798,-0.1767,-0.1766,-0.1797,-0.1799,-0.1891,0,0,0,-0.1991,-0.1993,-0.1971,-0.1973,-0.1933,-0.1871,-0.1906,-0.1832,-0.1822,-0.1799,-0.1767,-0.1765,-0.1796,-0.1798,-0.1886,-0.1762,0,0,0,-0.2012,-0.1994,-0.1993,-0.1975,-0.1943,-0.1872,-0.1867,-0.1829,-0.1814,-0.1768,-0.1765,-0.1796,-0.1798,-0.1882,-0.176,-0.1689,0,0,0,-0.2013,-0.1998,-0.1993,-0.1993,-0.1945,-0.1949,-0.1868,-0.184,-0.1809,-0.1766,-0.1797,-0.1799,-0.1881,-0.1759,-0.1689,-0.1529,-0.1515,0,0,-0.1994,-0.1995,-0.2005,-0.1999,-0.2013,-0.1959,-0.199,-0.1902,-0.1842,-0.1819,-0.1819,-0.1888,-0.176,-0.1689,-0.1657,-0.1637,0,0,0,-0.2001,-0.1987,-0.2001,-0.2008,-0.2028,-0.2004,-0.1978,-0.1969,-0.1934,-0.1836,-0.1907,-0.1819,-0.1773,-0.168,-0.1667,-0.155,-0.1809,-0.1809,-0.1808,-0.187,-0.1939,-0.1934,-0.2004,-0.2024,-0.2049,-0.2021,-0.1996,-0.2019,-0.2032,-0.1918,-0.1932,-0.1846,-0.183,-0.1719,-0.203,-0.203,-0.203,-0.203,-0.1778,-0.1696,-0.1853,-0.1867,-0.1929,-0.1958,-0.2014,-0.2036,-0.1991,-0.2029,-0.1985,-0.1808,-0.1819,-0.1705,-0.2037,-0.2036,-0.2035,-0.2034,-0.2034,-0.1558,-0.151,-0.1633,-0.1709,-0.1737,-0.1843,-0.1818,-0.1885,-0.1925,-0.1898,-0.1744,-0.1741,-0.1604,-0.1909,-0.1909,-0.1908,-0.1907,-0.1907,-0.1906,-0.1192,-0.1323,-0.1363,-0.1499,-0.1556,-0.1596,-0.1681,-0.1683,-0.167,-0.1689,-0.1689,-0.158,-0.189,-0.1853,-0.1894,-0.1897,-0.1898,-0.1899,-0.19,-0.0741,-0.0914,-0.0971,-0.1076,-0.1274,-0.129,-0.1448,-0.1412,-0.1411,-0.1356,-0.1306,-0.1584,-0.148,-0.1491,-0.1443,-0.1373,-0.1373,-0.1373,-0.1373,-0.0396,-0.0502,-0.0571,-0.0742,-0.0918,-0.1106,-0.1023,-0.106,-0.1042,-0.0968,-0.1031,-0.109,-0.1116,-0.0995,-0.1017,-0.0962,-0.0771,-0.0771,-0.077,-0.009,-0.0192,-0.0126,-0.0444,-0.0738,-0.0876,-0.0742,-0.0582,-0.0593,-0.0742,-0.09,-0.0926,-0.102,-0.107,-0.0895,-0.0935,-0.0849,0,0]},{"header":{"parameterUnit":"m.s-1","parameterCategory":2,"la1":30.2992,"la2":30.254,"lo1":-89.0895,"lo2":-89.0443,"dy":0.0025,"dx":0.0025,"nx":19,"ny":19,"refTime":"2026-03-18T09:00:00:Z","depth":"0","parameterNumber":3,"parameterNumberName":"V-component_of_CURRENTS"},"data":[0,0,0,-0.0076,-0.0077,-0.0089,-0.0089,-0.0069,-0.0068,0,0,0,0,0,0,0,0,0,0,0,-0.0072,-0.0072,-0.0076,-0.0077,-0.0089,-0.0089,-0.0069,-0.0068,0,0,0,0,0,0,0,0,0,0,0,-0.0072,-0.0072,-0.0073,-0.0077,-0.0089,-0.0089,-0.0069,-0.0068,0,0,0,0,0,0,0,0,0,0,-0.006,-0.006,-0.0072,-0.0073,-0.0077,-0.0089,-0.0089,-0.0068,-0.0068,-0.0053,0,-0.0059,0,-0.0063,-0.0066,-0.0066,0,0,0,-0.0074,-0.0061,-0.0066,-0.0073,-0.0077,-0.0089,-0.0083,-0.0068,-0.0068,-0.0053,-0.0059,-0.0058,-0.0063,-0.0066,-0.0066,-0.0055,-0.0055,0,0,-0.0073,-0.007,-0.0067,-0.0066,-0.0084,-0.0083,-0.0083,-0.0068,-0.0067,-0.0059,-0.0058,-0.0062,-0.0066,-0.0066,-0.0055,-0.0055,0,0,0,-0.0073,-0.007,-0.0077,-0.0067,-0.0072,-0.0083,-0.0084,-0.0068,-0.0071,-0.0058,-0.0062,-0.0066,-0.0065,-0.0055,-0.0055,-0.0097,0,0,0,-0.0072,-0.007,-0.0076,-0.0074,-0.0073,-0.0075,-0.0084,-0.0072,-0.0071,-0.0062,-0.0066,-0.0065,-0.0055,-0.0055,-0.0095,-0.0132,0,0,0,-0.0071,-0.007,-0.0073,-0.0074,-0.0081,-0.0075,-0.0078,-0.0072,-0.0073,-0.0066,-0.0065,-0.0055,-0.0055,-0.0094,-0.0129,-0.0125,0,0,0,-0.0065,-0.0089,-0.0073,-0.0106,-0.0081,-0.0105,-0.0078,-0.009,-0.0089,-0.0066,-0.0055,-0.0055,-0.0094,-0.0127,-0.0124,-0.0049,-0.005,0,0,-0.0096,-0.0092,-0.0115,-0.0103,-0.0151,-0.0103,-0.0125,-0.011,-0.0084,-0.0056,-0.0056,-0.0096,-0.0129,-0.0125,-0.0064,-0.0064,0,0,0,-0.0127,-0.0148,-0.0159,-0.0182,-0.0182,-0.0176,-0.0145,-0.0124,-0.0105,-0.0084,-0.0089,-0.0109,-0.0105,-0.0057,-0.0057,0.0092,-0.0056,-0.0056,-0.0056,-0.0149,-0.0175,-0.0224,-0.0248,-0.0252,-0.0222,-0.0209,-0.017,-0.0132,-0.0126,-0.0137,-0.0158,-0.0107,-0.0106,0.0045,-0.012,-0.012,-0.012,-0.0121,-0.0219,-0.0266,-0.028,-0.0338,-0.0321,-0.032,-0.0268,-0.0234,-0.0196,-0.0167,-0.016,-0.0097,-0.0109,0.0053,-0.0123,-0.0123,-0.0122,-0.0122,-0.0122,-0.0252,-0.0286,-0.0308,-0.0377,-0.0402,-0.0379,-0.0375,-0.0318,-0.0253,-0.0246,-0.0159,-0.0157,-0.0019,-0.0227,-0.0227,-0.0227,-0.0227,-0.0227,-0.0227,-0.0282,-0.0312,-0.0355,-0.0421,-0.0457,-0.0479,-0.0431,-0.0389,-0.028,-0.0209,-0.0208,0.0,-0.0191,-0.0191,-0.023,-0.0229,-0.0229,-0.0229,-0.0229,-0.0344,-0.0332,-0.0413,-0.0452,-0.0535,-0.0531,-0.0507,-0.036,-0.03,-0.0223,0.0039,-0.0171,-0.0148,-0.0147,-0.0145,-0.017,-0.017,-0.017,-0.017,-0.0364,-0.0372,-0.0455,-0.0514,-0.0582,-0.0559,-0.0419,-0.0231,0.0011,0.015,0.0145,0.0211,0.0202,0.0249,0.0242,0.0253,0.0329,0.033,0.0331,-0.0385,-0.0423,-0.047,-0.053,-0.0605,-0.0553,-0.033,0.0071,0.0366,0.0364,0.0336,0.0315,0.0422,0.0396,0.0478,0.0456,0.0477,0,0]}],[{"header":{"parameterUnit":"m.s-1","parameterCategory":2,"la1":30.2992,"la2":30.254,"lo1":-89.0895,"lo2":-89.0443,"dy":0.0025,"dx":0.0025,"nx":19,"ny":19,"refTime":"2026-03-18T09:00:00:Z","depth":"2","parameterNumber":2,"parameterNumberName":"U-component_of_CURRENTS"},"data":[0,0,0,-0.1392,-0.1393,-0.1477,-0.1477,-0.1749,-0.1752,0,0,0,0,0,0,0,0,0,0,0,-0.1339,-0.1339,-0.1392,-0.1393,-0.1477,-0.1477,-0.1748,-0.1752,0,0,0,0,0,0,0,0,0,0,0,-0.134,-0.1339,-0.1339,-0.1393,-0.1477,-0.1477,-0.1748,-0.1647,0,0,0,0,0,0,0,0,0,0,-0.1546,-0.1497,-0.1339,-0.1339,-0.1394,-0.1476,-0.1477,-0.164,-0.1653,-0.1754,0,-0.1737,0,-0.1761,-0.1773,-0.1774,0,0,0,-0.1405,-0.1486,-0.1484,-0.1339,-0.1394,-0.1476,-0.1443,-0.1646,-0.1661,-0.1772,-0.174,-0.175,-0.1765,-0.1775,-0.1776,-0.2024,-0.2025,0,0,-0.1401,-0.1394,-0.1472,-0.1491,-0.1382,-0.144,-0.1445,-0.1653,-0.1674,-0.1741,-0.1757,-0.177,-0.1777,-0.1779,-0.2024,-0.2025,0,0,0,-0.1379,-0.1391,-0.1381,-0.148,-0.1488,-0.1442,-0.1448,-0.1665,-0.1652,-0.1759,-0.1773,-0.1778,-0.1782,-0.2024,-0.2024,-0.196,0,0,0,-0.1377,-0.1378,-0.1378,-0.1381,-0.1482,-0.1564,-0.1455,-0.1637,-0.1661,-0.1772,-0.1779,-0.1785,-0.2023,-0.2024,-0.1961,-0.1897,0,0,0,-0.1342,-0.1377,-0.1367,-0.1379,-0.141,-0.1559,-0.156,-0.1641,-0.1671,-0.1774,-0.1786,-0.2023,-0.2024,-0.1961,-0.19,-0.1849,0,0,0,-0.136,-0.1381,-0.1366,-0.1396,-0.1408,-0.1477,-0.1559,-0.1656,-0.1739,-0.178,-0.2023,-0.2024,-0.1962,-0.1902,-0.1852,-0.1706,-0.1684,0,0,-0.1404,-0.1386,-0.1401,-0.139,-0.1457,-0.1468,-0.1567,-0.1713,-0.1791,-0.1968,-0.1973,-0.196,-0.19,-0.185,-0.176,-0.1735,0,0,0,-0.1428,-0.1434,-0.1447,-0.1478,-0.1512,-0.1561,-0.168,-0.1717,-0.1852,-0.1841,-0.1998,-0.1962,-0.1931,-0.1851,-0.1832,-0.2029,-0.2029,-0.2028,-0.2028,-0.1442,-0.1467,-0.1503,-0.154,-0.1583,-0.1662,-0.1687,-0.1773,-0.1869,-0.1907,-0.1938,-0.1892,-0.1809,-0.1792,-0.1992,-0.1992,-0.1991,-0.1991,-0.1991,-0.1451,-0.1448,-0.151,-0.1553,-0.1604,-0.1674,-0.1747,-0.1786,-0.1829,-0.1906,-0.1881,-0.1823,-0.1766,-0.1987,-0.1988,-0.1988,-0.1989,-0.1989,-0.1989,-0.1385,-0.1403,-0.1432,-0.1495,-0.1559,-0.1638,-0.165,-0.1712,-0.1762,-0.1744,-0.1675,-0.1675,-0.1806,-0.175,-0.175,-0.1749,-0.1749,-0.1749,-0.1748,-0.1287,-0.134,-0.1343,-0.142,-0.1446,-0.1493,-0.1572,-0.1581,-0.1566,-0.157,-0.157,-0.181,-0.1817,-0.1793,-0.1741,-0.1742,-0.1743,-0.1744,-0.1744,-0.1223,-0.1226,-0.1225,-0.1241,-0.1301,-0.1274,-0.1386,-0.1351,-0.1359,-0.1305,-0.1468,-0.1477,-0.1472,-0.1487,-0.1456,-0.1319,-0.1319,-0.1319,-0.1319,-0.1152,-0.1163,-0.1127,-0.1116,-0.113,-0.1169,-0.1066,-0.1052,-0.1099,-0.1095,-0.1105,-0.1138,-0.1159,-0.114,-0.1164,-0.1129,-0.0906,-0.0906,-0.0905,-0.1112,-0.11,-0.1046,-0.1037,-0.105,-0.1026,-0.0869,-0.0729,-0.0746,-0.0894,-0.1087,-0.1281,-0.136,-0.1381,-0.1383,-0.1409,-0.1365,0,0]},{"header":{"parameterUnit":"m.s-1","parameterCategory":2,"la1":30.2992,"la2":30.254,"lo1":-89.0895,"lo2":-89.0443,"dy":0.0025,"dx":0.0025,"nx":19,"ny":19,"refTime":"2026-03-18T09:00:00:Z","depth":"2","parameterNumber":3,"parameterNumberName":"V-component_of_CURRENTS"},"data":[0,0,0,-0.0068,-0.0068,-0.0049,-0.0049,0.0111,0.0112,0,0,0,0,0,0,0,0,0,0,0,-0.0073,-0.0073,-0.0068,-0.0068,-0.0049,-0.0049,0.011,0.0112,0,0,0,0,0,0,0,0,0,0,0,-0.0073,-0.0073,-0.0073,-0.0068,-0.0049,-0.0049,0.011,0.0065,0,0,0,0,0,0,0,0,0,0,0.0031,0.0002,-0.0073,-0.0073,-0.0068,-0.0049,-0.0049,0.0062,0.0068,0.0136,0,0.0127,0,0.0121,0.0125,0.0125,0,0,0,-0.0054,-0.0003,-0.0,-0.0073,-0.0068,-0.0049,-0.0054,0.0064,0.0072,0.0145,0.0129,0.0134,0.0124,0.0126,0.0127,0.0228,0.0227,0,0,-0.0056,-0.0059,-0.0006,0.0003,-0.0075,-0.0054,-0.0053,0.0067,0.0075,0.013,0.0137,0.0126,0.0127,0.0129,0.0228,0.0228,0,0,0,-0.0068,-0.006,-0.0063,-0.0002,-0.0011,-0.0054,-0.0053,0.007,0.0067,0.0139,0.0128,0.0128,0.0131,0.0228,0.0228,0.0107,0,0,0,-0.0067,-0.0068,-0.0063,-0.0064,-0.0015,0.0011,-0.0053,0.0059,0.0072,0.0127,0.0128,0.0132,0.0229,0.0228,0.011,0.0079,0,0,0,-0.0072,-0.0068,-0.0071,-0.0064,-0.0063,0.0008,0.0013,0.0061,0.0066,0.0125,0.0133,0.0229,0.0228,0.0114,0.0085,0.009,0,0,0,-0.0068,-0.0085,-0.0072,-0.0091,-0.0064,-0.0067,0.0011,0.0035,0.0076,0.0129,0.0229,0.0228,0.0115,0.0088,0.0093,0.0159,0.0151,0,0,-0.0089,-0.0087,-0.0101,-0.0089,-0.0126,-0.0068,-0.0079,0.0014,0.0093,0.0202,0.0204,0.0109,0.0085,0.0091,0.0118,0.0112,0,0,0,-0.0108,-0.0127,-0.0132,-0.0151,-0.0139,-0.0133,-0.0059,-0.002,0.0052,0.0112,0.0129,0.0119,0.0126,0.0172,0.0167,0.0225,0.0225,0.0225,0.0225,-0.0167,-0.017,-0.0205,-0.0212,-0.0207,-0.0169,-0.0149,-0.0076,0.0005,0.0011,0.0033,-0.0024,0.0021,0.0018,0.004,0.0039,0.0039,0.0038,0.0038,-0.0238,-0.0265,-0.0267,-0.0298,-0.0285,-0.0278,-0.0217,-0.0175,-0.0113,-0.0057,-0.0044,0.0058,0.0006,0.0029,0.003,0.0032,0.0033,0.0033,0.0034,-0.0295,-0.0304,-0.032,-0.0361,-0.0375,-0.0343,-0.0333,-0.0274,-0.0199,-0.0199,-0.0076,-0.0072,-0.0077,-0.0176,-0.0176,-0.0176,-0.0176,-0.0176,-0.0177,-0.0339,-0.0354,-0.0395,-0.0423,-0.0442,-0.0447,-0.039,-0.0345,-0.0241,-0.0174,-0.0172,-0.0095,-0.0088,-0.0086,-0.0179,-0.0178,-0.0178,-0.0178,-0.0178,-0.0393,-0.0399,-0.0461,-0.049,-0.0533,-0.0534,-0.0469,-0.0329,-0.0267,-0.0199,-0.014,-0.014,-0.0076,-0.0069,-0.0065,-0.0147,-0.0147,-0.0147,-0.0147,-0.0427,-0.0436,-0.0517,-0.0568,-0.061,-0.0579,-0.0472,-0.0294,-0.0151,-0.0083,-0.0086,-0.0048,-0.005,0.0019,0.0023,0.0032,-0.0025,-0.0025,-0.0025,-0.0459,-0.0482,-0.0541,-0.0595,-0.0644,-0.0611,-0.0468,-0.0197,-0.0003,-0.0023,-0.0088,-0.0134,-0.0083,-0.0085,0.0022,0.0029,0.0043,0,0]}],[{"header":{"parameterUnit":"m.s-1","parameterCategory":2,"la1":30.2992,"la2":30.254,"lo1":-89.0895,"lo2":-89.0443,"dy":0.0025,"dx":0.0025,"nx":19,"ny":19,"refTime":"2026-03-18T09:00:00:Z","depth":"4","parameterNumber":2,"parameterNumberName":"U-component_of_CURRENTS"},"data":[0,0,0,-0.0924,-0.0925,-0.0996,-0.0996,-0.1022,-0.1022,0,0,0,0,0,0,0,0,0,0,0,-0.0902,-0.0903,-0.0924,-0.0925,-0.0996,-0.0996,-0.1022,-0.1022,0,0,0,0,0,0,0,0,0,0,0,-0.0902,-0.0903,-0.0903,-0.0926,-0.0996,-0.0996,-0.1022,-0.0986,0,0,0,0,0,0,0,0,0,0,-0.0926,-0.0922,-0.0903,-0.0903,-0.0926,-0.0996,-0.0996,-0.0985,-0.0988,-0.0971,0,-0.0985,0,-0.1,-0.1022,-0.1022,0,0,0,-0.0929,-0.0919,-0.0929,-0.0903,-0.0927,-0.0996,-0.0965,-0.0987,-0.0991,-0.0974,-0.0985,-0.0987,-0.1,-0.1022,-0.1022,-0.1051,-0.1052,0,0,-0.0925,-0.0922,-0.0927,-0.0931,-0.0948,-0.0963,-0.0967,-0.099,-0.0999,-0.0986,-0.0988,-0.1001,-0.1022,-0.1022,-0.1051,-0.1051,0,0,0,-0.0911,-0.092,-0.0931,-0.093,-0.0945,-0.0965,-0.097,-0.0998,-0.0999,-0.0988,-0.1001,-0.1022,-0.1022,-0.1051,-0.1051,-0.1097,0,0,0,-0.0909,-0.0911,-0.0929,-0.0929,-0.0945,-0.0983,-0.0977,-0.0998,-0.1001,-0.1001,-0.1022,-0.1022,-0.105,-0.1051,-0.1095,-0.1153,0,0,0,-0.0899,-0.091,-0.0917,-0.0928,-0.0956,-0.0984,-0.0987,-0.1,-0.1008,-0.1022,-0.1022,-0.105,-0.1051,-0.1093,-0.1148,-0.1149,0,0,0,-0.0894,-0.0908,-0.0918,-0.0941,-0.0955,-0.099,-0.0988,-0.1017,-0.1031,-0.1022,-0.105,-0.1051,-0.1092,-0.1146,-0.1147,-0.0947,0,0,0,-0.0904,-0.0909,-0.0922,-0.0932,-0.0977,-0.098,-0.1021,-0.1038,-0.1036,-0.1038,-0.1039,-0.1095,-0.1148,-0.1149,-0.0995,0,0,0,0,-0.092,-0.0943,-0.0954,-0.0988,-0.1002,-0.1049,-0.1048,-0.1054,-0.1084,-0.1048,-0.1099,-0.1132,-0.1129,-0.1006,-0.1055,-0.1055,-0.1055,-0.1055,-0.1055,-0.0943,-0.0961,-0.1003,-0.1035,-0.1061,-0.1092,-0.113,-0.1143,-0.11,-0.1124,-0.1169,-0.1209,-0.108,-0.1149,-0.1149,-0.1149,-0.115,-0.115,-0.115,-0.0974,-0.0983,-0.1052,-0.1102,-0.1144,-0.1181,-0.1218,-0.1214,-0.1245,-0.1211,-0.1204,-0.1065,-0.1154,-0.1154,-0.1153,-0.1152,-0.1152,-0.1152,-0.1151,-0.0957,-0.0962,-0.1026,-0.1102,-0.1191,-0.1231,-0.1278,-0.131,-0.1317,-0.1343,-0.116,-0.1245,-0.1239,-0.1304,-0.1304,-0.1305,-0.1305,-0.1305,-0.1305,-0.0879,-0.0946,-0.0986,-0.1089,-0.1138,-0.1207,-0.1296,-0.1306,-0.1328,-0.1222,-0.1344,-0.1261,-0.1256,-0.1248,-0.1309,-0.1309,-0.1308,-0.1308,-0.1308,-0.0808,-0.0838,-0.0884,-0.0936,-0.1043,-0.1081,-0.1201,-0.1187,-0.1179,-0.1131,-0.1138,-0.1145,-0.1112,-0.1111,-0.1096,-0.1115,-0.1113,-0.111,0,-0.0732,-0.0758,-0.0796,-0.0841,-0.0881,-0.0995,-0.0948,-0.0992,-0.1028,-0.0986,-0.1181,-0.119,-0.1193,-0.1156,-0.1152,-0.1134,0,0,0,-0.0681,-0.0701,-0.0699,-0.0763,-0.0805,-0.0839,-0.0929,-0.0888,-0.1032,-0.0968,-0.1052,-0.1067,-0.1206,-0.1322,-0.1288,-0.1282,-0.1267,0,0]},{"header":{"parameterUnit":"m.s-1","parameterCategory":2,"la1":30.2992,"la2":30.254,"lo1":-89.0895,"lo2":-89.0443,"dy":0.0025,"dx":0.0025,"nx":19,"ny":19,"refTime":"2026-03-18T09:00:00:Z","depth":"4","parameterNumber":3,"parameterNumberName":"V-component_of_CURRENTS"},"data":[0,0,0,-0.0064,-0.0064,-0.0083,-0.0083,-0.011,-0.011,0,0,0,0,0,0,0,0,0,0,0,-0.0059,-0.0059,-0.0064,-0.0064,-0.0083,-0.0083,-0.011,-0.011,0,0,0,0,0,0,0,0,0,0,0,-0.0059,-0.0059,-0.0059,-0.0064,-0.0083,-0.0083,-0.011,-0.0095,0,0,0,0,0,0,0,0,0,0,-0.0076,-0.0069,-0.0059,-0.0059,-0.0064,-0.0083,-0.0083,-0.0094,-0.0096,-0.0102,0,-0.0108,0,-0.0109,-0.0112,-0.0112,0,0,0,-0.0064,-0.0068,-0.0075,-0.0059,-0.0065,-0.0083,-0.0074,-0.0095,-0.0097,-0.0105,-0.0108,-0.0109,-0.011,-0.0112,-0.0112,-0.0131,-0.0131,0,0,-0.0063,-0.006,-0.0074,-0.0076,-0.0073,-0.0074,-0.0075,-0.0096,-0.0098,-0.0108,-0.0109,-0.011,-0.0112,-0.0113,-0.0131,-0.0131,0,0,0,-0.006,-0.0059,-0.0066,-0.0075,-0.0078,-0.0074,-0.0076,-0.0097,-0.01,-0.011,-0.0111,-0.0113,-0.0113,-0.0131,-0.0131,-0.0142,0,0,0,-0.0059,-0.0058,-0.0065,-0.0063,-0.0078,-0.0087,-0.0076,-0.0099,-0.0101,-0.011,-0.0113,-0.0113,-0.0131,-0.0131,-0.0142,-0.0155,0,0,0,-0.0057,-0.0057,-0.0061,-0.0063,-0.0072,-0.0087,-0.0091,-0.0099,-0.0102,-0.0112,-0.0113,-0.0131,-0.0131,-0.0142,-0.0154,-0.014,0,0,0,-0.0051,-0.0064,-0.0061,-0.0078,-0.0072,-0.0096,-0.0091,-0.0107,-0.0118,-0.0113,-0.0131,-0.0131,-0.0142,-0.0154,-0.0139,-0.014,0,0,0,-0.0066,-0.0066,-0.0077,-0.0075,-0.0112,-0.0094,-0.0116,-0.0124,-0.0118,-0.0124,-0.0125,-0.0142,-0.0154,-0.0139,-0.0138,0,0,0,0,-0.0081,-0.0095,-0.0105,-0.0125,-0.0133,-0.0141,-0.0142,-0.013,-0.0128,-0.0123,-0.0139,-0.0146,-0.0136,-0.0136,-0.0131,-0.0131,-0.0131,-0.0131,-0.0131,-0.012,-0.0126,-0.0157,-0.017,-0.0179,-0.0174,-0.0166,-0.0149,-0.0146,-0.0137,-0.0152,-0.0146,-0.0147,-0.0144,-0.0144,-0.0144,-0.0144,-0.0144,-0.0144,-0.0174,-0.0194,-0.0201,-0.0232,-0.0229,-0.0239,-0.0203,-0.0182,-0.0155,-0.0154,-0.0143,-0.0145,-0.0145,-0.0145,-0.0145,-0.0145,-0.0145,-0.0145,-0.0145,-0.0215,-0.022,-0.024,-0.0278,-0.0294,-0.0281,-0.0268,-0.0228,-0.0177,-0.0164,-0.0151,-0.0149,-0.0151,-0.0156,-0.0156,-0.0156,-0.0156,-0.0156,-0.0156,-0.024,-0.0257,-0.0297,-0.0327,-0.0349,-0.0355,-0.0307,-0.0268,-0.021,-0.0168,-0.017,-0.015,-0.015,-0.0151,-0.0156,-0.0156,-0.0156,-0.0156,-0.0156,-0.0265,-0.0279,-0.034,-0.0372,-0.042,-0.0418,-0.0377,-0.0273,-0.0226,-0.017,-0.0157,-0.0157,-0.0151,-0.015,-0.0151,-0.0156,-0.0156,-0.0156,0,-0.0278,-0.0291,-0.0372,-0.0429,-0.0466,-0.0453,-0.0385,-0.0321,-0.0228,-0.023,-0.0238,-0.023,-0.0227,-0.0227,-0.0226,-0.0232,0,0,0,-0.0288,-0.0317,-0.0373,-0.044,-0.0485,-0.0416,-0.0367,-0.0323,-0.0248,-0.0177,-0.0157,-0.0157,-0.0181,-0.0156,-0.0146,-0.0145,-0.0146,0,0]}]]